TIANMU-1 05

Last updated on Wed Sep 23 2026 00:03:10 GMT+0000 (Coordinated Universal Time)

1 55975U 23039C 26265.60965088 .00011830 00000+0 21494-3 0 9996 2 55975 97.5244 83.1971 0003717 110.9937 249.1712 15.49710356195890
UTC large
Height (km)
Speed (km/s)
/
Latitude / Longitude
Inclination (degrees)
Orbital Period (minutes)
Azimuth
Elevation
Range (km)
Doppler Factor

Next 0 passes for location: London (51.5072 / 0.1276)

No passes found over London.
TIANMU-1 05